| time (UTC) | temp C | wind direction | speed KPH | gust KPH | rain 1hr cm | rain 24hr cm | rain mn cm | humidity % | barometer mb |
| 20260507180709 | 20 | 219 | 22.5 | 32.2 | 0.00 | 0.00 | 0.00 | 36 | 1016.1 |
| 20260507175707 | 18 | 219 | 17.7 | 41.8 | 0.00 | 0.00 | 0.00 | 40 | 1016.4 |
| 20260507174701 | 18 | 219 | 27.4 | 38.6 | 0.00 | 0.00 | 0.00 | 40 | 1016.4 |
| 20260507173656 | 18 | 217 | 12.9 | 27.4 | 0.00 | 0.00 | 0.00 | 43 | 1016.5 |
| 20260507172656 | 18 | 239 | 19.3 | 40.2 | 0.00 | 0.00 | 0.00 | 41 | 1016.7 |
| 20260507171652 | 18 | 237 | 9.7 | 33.8 | 0.00 | 0.00 | 0.00 | 40 | 1016.9 |
| 20260507170653 | 17 | 198 | 9.7 | 38.6 | 0.00 | 0.00 | 0.00 | 43 | 1016.6 |
| 20260507165651 | 17 | 206 | 17.7 | 30.6 | 0.00 | 0.00 | 0.00 | 45 | 1017.3 |
| 20260507164649 | 17 | 208 | 11.3 | 30.6 | 0.00 | 0.00 | 0.00 | 46 | 1017.5 |
| 20260507163650 | 17 | 219 | 20.9 | 33.8 | 0.00 | 0.00 | 0.00 | 46 | 1017.7 |
| 20260507162649 | 17 | 236 | 20.9 | 38.6 | 0.00 | 0.00 | 0.00 | 47 | 1017.9 |
| 20260507161648 | 16 | 227 | 20.9 | 32.2 | 0.00 | 0.00 | 0.00 | 50 | 1018.0 |
| 20260507160647 | 15 | 218 | 12.9 | 37.0 | 0.00 | 0.00 | 0.00 | 50 | 1017.9 |
| 20260507155645 | 15 | 244 | 22.5 | 37.0 | 0.00 | 0.00 | 0.00 | 51 | 1018.2 |
| 20260507154644 | 15 | 248 | 32.2 | 38.6 | 0.00 | 0.00 | 0.00 | 54 | 1018.1 |
| 20260507153644 | 15 | 225 | 14.5 | 25.7 | 0.00 | 0.00 | 0.00 | 56 | 1018.1 |
| 20260507152642 | 14 | 228 | 20.9 | 35.4 | 0.00 | 0.00 | 0.00 | 56 | 1018.4 |
| 20260507151640 | 13 | 256 | 30.6 | 41.8 | 0.00 | 0.00 | 0.00 | 59 | 1018.7 |
| 20260507150639 | 13 | 246 | 20.9 | 33.8 | 0.00 | 0.00 | 0.00 | 60 | 1018.7 |
| 20260507145637 | 13 | 236 | 17.7 | 35.4 | 0.00 | 0.00 | 0.00 | 62 | 1018.7 |
| 20260507144637 | 12 | 244 | 24.1 | 41.8 | 0.00 | 0.00 | 0.00 | 63 | 1018.7 |
| 20260507143637 | 12 | 227 | 19.3 | 32.2 | 0.00 | 0.00 | 0.00 | 64 | 1018.9 |
| 20260507142636 | 12 | 236 | 20.9 | 38.6 | 0.00 | 0.00 | 0.00 | 67 | 1019.2 |
| 20260507141635 | 11 | 259 | 22.5 | 38.6 | 0.00 | 0.00 | 0.00 | 70 | 1019.2 |
| 20260507140634 | 11 | 245 | 32.2 | 41.8 | 0.00 | 0.00 | 0.00 | 73 | 1019.2 |
| 20260507135634 | 11 | 235 | 22.5 | 37.0 | 0.00 | 0.00 | 0.00 | 74 | 1019.6 |
| 20260507134633 | 10 | 234 | 14.5 | 29.0 | 0.00 | 0.00 | 0.00 | 78 | 1019.5 |
| 20260507133631 | 10 | 244 | 14.5 | 22.5 | 0.00 | 0.00 | 0.00 | 81 | 1019.6 |
| 20260507132632 | 9 | 235 | 11.3 | 27.4 | 0.00 | 0.00 | 0.00 | 82 | 1019.5 |
| 20260507131630 | 8 | 242 | 17.7 | 30.6 | 0.00 | 0.00 | 0.00 | 85 | 1019.6 |
| 20260507130630 | 7 | 217 | 6.4 | 17.7 | 0.00 | 0.00 | 0.00 | 87 | 1019.6 |
| 20260507125627 | 7 | 225 | 17.7 | 17.7 | 0.00 | 0.00 | 0.00 | 88 | 1019.7 |
| 20260507124626 | 6 | 231 | 9.7 | 12.9 | 0.00 | 0.00 | 0.00 | 89 | 1019.6 |
| 20260507123622 | 6 | 216 | 8.0 | 17.7 | 0.00 | 0.00 | 0.00 | 91 | 1019.3 |
| 20260507122619 | 5 | 222 | 4.8 | 14.5 | 0.00 | 0.00 | 0.00 | 92 | 1019.2 |
| 20260507121617 | 5 | 202 | 4.8 | 11.3 | 0.00 | 0.00 | 0.00 | 94 | 1019.4 |
| 20260507120615 | 4 | 223 | 6.4 | 8.0 | 0.00 | 0.00 | 0.00 | 94 | 1019.4 |
| 20260507115615 | 4 | 228 | 8.0 | 9.7 | 0.00 | 0.00 | 0.00 | 95 | 1019.4 |
| 20260507114613 | 3 | 205 | 3.2 | 8.0 | 0.00 | 0.00 | 0.00 | 95 | 1019.3 |
| 20260507113607 | 3 | 217 | 0.0 | 6.4 | 0.00 | 0.00 | 0.00 | 94 | 1019.2 |
| 20260507112602 | 3 | 193 | 0.0 | 6.4 | 0.00 | 0.00 | 0.00 | 94 | 1019.7 |
| 20260507111601 | 3 | 224 | 3.2 | 4.8 | 0.00 | 0.00 | 0.00 | 94 | 1019.2 |
| 20260507110600 | 3 | 234 | 3.2 | 6.4 | 0.00 | 0.00 | 0.00 | 94 | 1019.5 |
| 20260507105600 | 3 | 210 | 1.6 | 6.4 | 0.00 | 0.00 | 0.00 | 94 | 1019.7 |
| 20260507104559 | 3 | 210 | 4.8 | 6.4 | 0.00 | 0.00 | 0.00 | 93 | 1019.6 |
| 20260507103557 | 4 | 206 | 4.8 | 8.0 | 0.00 | 0.00 | 0.00 | 93 | 1019.4 |
| 20260507102556 | 5 | 267 | 3.2 | 8.0 | 0.00 | 0.00 | 0.00 | 94 | 1019.2 |
| 20260507101554 | 4 | 241 | 3.2 | 4.8 | 0.00 | 0.00 | 0.00 | 94 | 1019.6 |
| 20260507100554 | 4 | 288 | 0.0 | 4.8 | 0.00 | 0.00 | 0.00 | 93 | 1019.6 |
| 20260507095549 | 5 | 236 | 3.2 | 4.8 | 0.00 | 0.00 | 0.00 | 92 | 1019.7 |
| 20260507094548 | 5 | 242 | 3.2 | 4.8 | 0.00 | 0.00 | 0.00 | 92 | 1019.7 |
| 20260507093549 | 5 | 218 | 3.2 | 4.8 | 0.00 | 0.00 | 0.00 | 92 | 1019.8 |
| 20260507092543 | 5 | 180 | 1.6 | 4.8 | 0.00 | 0.00 | 0.00 | 91 | 1019.8 |
| 20260507091543 | 5 | 240 | 3.2 | 6.4 | 0.00 | 0.00 | 0.00 | 90 | 1020.0 |
| 20260507090540 | 5 | 229 | 3.2 | 4.8 | 0.00 | 0.00 | 0.00 | 89 | 1019.9 |
| 20260507085540 | 6 | 263 | 4.8 | 6.4 | 0.00 | 0.00 | 0.00 | 88 | 1020.0 |
| 20260507084539 | 6 | 252 | 4.8 | 8.0 | 0.00 | 0.00 | 0.00 | 88 | 1020.2 |
| 20260507083538 | 6 | 258 | 6.4 | 8.0 | 0.00 | 0.00 | 0.00 | 87 | 1020.3 |
| 20260507082537 | 6 | 264 | 9.7 | 11.3 | 0.00 | 0.00 | 0.00 | 87 | 1020.5 |
| 20260507081536 | 6 | 266 | 8.0 | 12.9 | 0.00 | 0.00 | 0.00 | 86 | 1020.4 |
| 20260507080535 | 6 | 259 | 8.0 | 11.3 | 0.00 | 0.00 | 0.00 | 86 | 1020.4 |
| 20260507075533 | 6 | 264 | 8.0 | 11.3 | 0.00 | 0.00 | 0.00 | 85 | 1020.6 |
| 20260507074532 | 6 | 268 | 4.8 | 8.0 | 0.00 | 0.00 | 0.00 | 85 | 1020.5 |
| 20260507073533 | 7 | 265 | 4.8 | 8.0 | 0.00 | 0.00 | 0.00 | 84 | 1020.6 |
| 20260507072533 | 7 | 279 | 4.8 | 6.4 | 0.00 | 0.00 | 0.00 | 84 | 1020.6 |
| 20260507071527 | 7 | 289 | 3.2 | 9.7 | 0.00 | 0.00 | 0.00 | 83 | 1020.7 |
| 20260507070527 | 7 | 296 | 3.2 | 6.4 | 0.00 | 0.00 | 0.00 | 82 | 1021.0 |
| 20260507065526 | 7 | 290 | 3.2 | 6.4 | 0.00 | 0.00 | 0.00 | 81 | 1020.8 |
| 20260507064521 | 7 | 255 | 4.8 | 9.7 | 0.00 | 0.00 | 0.00 | 80 | 1021.2 |
| 20260507063522 | 8 | 271 | 4.8 | 8.0 | 0.00 | 0.00 | 0.00 | 80 | 1021.2 |
| 20260507062521 | 8 | 249 | 4.8 | 8.0 | 0.00 | 0.00 | 0.00 | 79 | 1021.2 |
| 20260507061517 | 8 | 265 | 4.8 | 9.7 | 0.00 | 0.00 | 0.00 | 78 | 1021.2 |
| 20260507060512 | 8 | 260 | 4.8 | 9.7 | 0.00 | 0.00 | 0.00 | 78 | 1021.0 |
| 20260507055509 | 8 | 288 | 3.2 | 4.8 | 0.00 | 0.00 | 0.00 | 78 | 1020.8 |
| 20260507054507 | 8 | 267 | 3.2 | 4.8 | 0.00 | 0.00 | 0.00 | 77 | 1021.3 |
| 20260507053507 | 8 | 256 | 0.0 | 1.6 | 0.00 | 0.00 | 0.00 | 77 | 1021.2 |
| 20260507052503 | 8 | 213 | 3.2 | 4.8 | 0.00 | 0.00 | 0.00 | 76 | 1021.1 |
| 20260507051503 | 8 | 228 | 1.6 | 4.8 | 0.00 | 0.00 | 0.00 | 75 | 1021.3 |
| 20260507050501 | 8 | 250 | 0.0 | 1.6 | 0.00 | 0.00 | 0.00 | 77 | 1021.5 |
| 20260507045501 | 8 | 191 | 0.0 | 3.2 | 0.00 | 0.05 | 0.05 | 80 | 1021.1 |
| 20260507044500 | 8 | 225 | 0.0 | 3.2 | 0.00 | 0.05 | 0.05 | 80 | 1021.3 |
| 20260507043459 | 7 | 124 | 3.2 | 3.2 | 0.00 | 0.05 | 0.05 | 81 | 1021.2 |
| 20260507042458 | 7 | 180 | 0.0 | 1.6 | 0.00 | 0.05 | 0.05 | 83 | 1021.3 |
| 20260507041456 | 7 | 104 | 0.0 | 0.0 | 0.00 | 0.05 | 0.05 | 82 | 1021.0 |
| 20260507040455 | 7 | 104 | 0.0 | 0.0 | 0.00 | 0.05 | 0.05 | 82 | 1021.2 |
| 20260507035454 | 7 | 269 | 0.0 | 1.6 | 0.00 | 0.05 | 0.05 | 82 | 1021.2 |
| 20260507034453 | 7 | 81 | 1.6 | 1.6 | 0.00 | 0.05 | 0.05 | 80 | 1021.2 |
| 20260507033449 | 7 | 77 | 3.2 | 3.2 | 0.00 | 0.05 | 0.05 | 81 | 1021.2 |
| 20260507032448 | 7 | 109 | 3.2 | 3.2 | 0.00 | 0.05 | 0.05 | 80 | 1021.2 |
| 20260507031447 | 6 | 133 | 1.6 | 3.2 | 0.00 | 0.05 | 0.05 | 79 | 1021.3 |
| 20260507030446 | 7 | 107 | 0.0 | 0.0 | 0.00 | 0.05 | 0.05 | 78 | 1021.2 |
| 20260507025441 | 6 | 107 | 0.0 | 1.6 | 0.00 | 0.05 | 0.05 | 77 | 1021.1 |
| 20260507024436 | 7 | 36 | 0.0 | 3.2 | 0.00 | 0.05 | 0.05 | 76 | 1020.8 |
| 20260507023434 | 7 | 55 | 0.0 | 1.6 | 0.00 | 0.05 | 0.05 | 75 | 1020.8 |
| 20260507022435 | 7 | 68 | 1.6 | 3.2 | 0.00 | 0.05 | 0.05 | 74 | 1021.0 |
| 20260507021431 | 7 | 35 | 1.6 | 3.2 | 0.00 | 0.05 | 0.05 | 72 | 1020.8 |
| 20260507020432 | 8 | 66 | 0.0 | 1.6 | 0.00 | 0.05 | 0.05 | 68 | 1020.4 |
| 20260507015427 | 8 | 102 | 1.6 | 3.2 | 0.00 | 0.05 | 0.05 | 65 | 1020.7 |
| 20260507014426 | 10 | 53 | 1.6 | 3.2 | 0.00 | 0.05 | 0.05 | 61 | 1020.5 |
| 20260507013425 | 10 | 15 | 0.0 | 1.6 | 0.00 | 0.05 | 0.05 | 58 | 1020.5 |
| 20260507012425 | 11 | 76 | 1.6 | 3.2 | 0.00 | 0.05 | 0.05 | 55 | 1020.2 |
| 20260507011425 | 12 | 39 | 0.0 | 4.8 | 0.00 | 0.05 | 0.05 | 52 | 1020.1 |
| 20260507010421 | 12 | 338 | 3.2 | 6.4 | 0.00 | 0.05 | 0.05 | 49 | 1020.1 |
| 20260507005421 | 13 | 13 | 3.2 | 8.0 | 0.00 | 0.05 | 0.05 | 46 | 1020.1 |
| 20260507004420 | 13 | 294 | 4.8 | 4.8 | 0.00 | 0.05 | 0.05 | 48 | 1020.1 |
| 20260507003418 | 13 | 4 | 8.0 | 11.3 | 0.00 | 0.05 | 0.05 | 47 | 1019.9 |
| 20260507002416 | 13 | 302 | 4.8 | 12.9 | 0.00 | 0.05 | 0.05 | 46 | 1019.9 |
| 20260507001416 | 13 | 350 | 4.8 | 11.3 | 0.00 | 0.05 | 0.05 | 46 | 1019.7 |
| 20260507000415 | 13 | 13 | 3.2 | 6.4 | 0.00 | 0.05 | 0.05 | 45 | 1019.8 |
| 20260506235414 | 13 | 45 | 4.8 | 11.3 | 0.00 | 0.05 | 0.05 | 45 | 1019.9 |
| 20260506234414 | 13 | 45 | 8.0 | 11.3 | 0.00 | 0.05 | 0.05 | 45 | 1020.0 |
| 20260506233413 | 13 | 16 | 6.4 | 12.9 | 0.00 | 0.05 | 0.05 | 45 | 1020.0 |
| 20260506232412 | 13 | 75 | 4.8 | 9.7 | 0.00 | 0.05 | 0.05 | 45 | 1019.8 |
| 20260506231411 | 13 | 12 | 6.4 | 11.3 | 0.00 | 0.05 | 0.05 | 45 | 1019.8 |
| 20260506230411 | 14 | 64 | 4.8 | 14.5 | 0.00 | 0.05 | 0.05 | 47 | 1019.8 |
| 20260506225411 | 13 | 18 | 6.4 | 16.1 | 0.00 | 0.05 | 0.05 | 45 | 1019.9 |
| 20260506224411 | 15 | 8 | 8.0 | 14.5 | 0.00 | 0.05 | 0.05 | 44 | 1019.7 |
| 20260506223408 | 15 | 17 | 4.8 | 12.9 | 0.00 | 0.05 | 0.05 | 46 | 1019.7 |
| 20260506222408 | 16 | 280 | 6.4 | 19.3 | 0.00 | 0.05 | 0.05 | 43 | 1019.7 |
| 20260506221402 | 15 | 32 | 4.8 | 17.7 | 0.00 | 0.05 | 0.05 | 47 | 1019.9 |
| 20260506220401 | 14 | 64 | 4.8 | 14.5 | 0.00 | 0.05 | 0.05 | 45 | 1019.9 |
| 20260506215400 | 15 | 20 | 4.8 | 17.7 | 0.00 | 0.05 | 0.05 | 47 | 1019.6 |
| 20260506214359 | 14 | 298 | 4.8 | 11.3 | 0.00 | 0.05 | 0.05 | 49 | 1019.9 |
| 20260506213354 | 14 | 17 | 8.0 | 12.9 | 0.00 | 0.05 | 0.05 | 48 | 1020.0 |
| 20260506212353 | 14 | 30 | 6.4 | 12.9 | 0.00 | 0.05 | 0.05 | 49 | 1020.2 |
| 20260506211350 | 13 | 289 | 1.6 | 14.5 | 0.00 | 0.05 | 0.05 | 50 | 1020.3 |
| 20260506210350 | 13 | 39 | 9.7 | 14.5 | 0.00 | 0.05 | 0.05 | 50 | 1020.3 |
| 20260506205349 | 13 | 333 | 6.4 | 19.3 | 0.00 | 0.05 | 0.05 | 51 | 1020.5 |
| 20260506204349 | 13 | 20 | 9.7 | 17.7 | 0.00 | 0.05 | 0.05 | 51 | 1020.8 |
| 20260506203349 | 14 | 15 | 6.4 | 16.1 | 0.00 | 0.05 | 0.05 | 52 | 1020.5 |
| 20260506202348 | 15 | 10 | 8.0 | 19.3 | 0.00 | 0.05 | 0.05 | 49 | 1020.6 |
| 20260506201347 | 13 | 313 | 9.7 | 16.1 | 0.00 | 0.05 | 0.05 | 50 | 1020.7 |
| 20260506200345 | 15 | 318 | 4.8 | 19.3 | 0.00 | 0.05 | 0.05 | 46 | 1020.8 |
| 20260506195344 | 13 | 31 | 11.3 | 20.9 | 0.00 | 0.05 | 0.05 | 50 | 1021.3 |
| 20260506194342 | 14 | 13 | 11.3 | 14.5 | 0.00 | 0.05 | 0.05 | 49 | 1021.2 |
| 20260506193342 | 13 | 343 | 4.8 | 12.9 | 0.00 | 0.05 | 0.05 | 51 | 1021.2 |
| 20260506192341 | 14 | 25 | 6.4 | 12.9 | 0.00 | 0.05 | 0.05 | 49 | 1021.2 |
| 20260506191340 | 13 | 80 | 4.8 | 14.5 | 0.00 | 0.05 | 0.05 | 48 | 1021.5 |
| 20260506190339 | 13 | 18 | 8.0 | 24.1 | 0.00 | 0.05 | 0.05 | 52 | 1021.4 |
| 20260506185340 | 13 | 74 | 8.0 | 16.1 | 0.00 | 0.05 | 0.05 | 53 | 1021.4 |
| 20260506184334 | 13 | 347 | 3.2 | 12.9 | 0.00 | 0.05 | 0.05 | 53 | 1021.7 |
| 20260506183332 | 13 | 326 | 6.4 | 14.5 | 0.00 | 0.05 | 0.05 | 55 | 1021.5 |
| 20260506182333 | 12 | 301 | 3.2 | 12.9 | 0.00 | 0.05 | 0.05 | 58 | 1021.5 |
| 20260506181328 | 13 | 34 | 8.0 | 16.1 | 0.00 | 0.05 | 0.05 | 56 | 1021.7 |